Station PMAF1 - 8726384 - Port Manatee, FL Image indicating link to RSS feed of recent meteorological observations for station PMAF1


Conditions at PMAF1 as of
(11:18 pm EDT on 06/12/2024)
0318 GMT on 06/13/2024:
     

Click on the graph icon in the table below to see a time series plot of the last five days of that observation.

5-day plot - Atmospheric Pressure Atmospheric Pressure (PRES):29.87 in
5-day plot - Water Temperature Water Temperature (WTMP): 88.9 °F
NOS Water Level Observation Network Water Level
Previous observations
TIME
(EDT)
5-day plot - Wind Direction
WDIR
 
5-day plot - Wind Speed
WSPD
kts
5-day plot - Wind Gust
GST
kts
5-day plot - Wave Height
WVHT
ft
5-day plot - Dominant Wave Period
DPD
sec
5-day plot - Average Wave Period
APD
sec
5-day plot - Mean Wave Direction
MWD
 
5-day plot - Atmospheric Pressure
PRES
in
5-day plot - Pressure Tendency
PTDY
in
5-day plot - Air Temperature
ATMP
°F
5-day plot - Water Temperature
WTMP
°F
5-day plot - Dew Point
DEWP
°F
5-day plot - Salinity
SAL
psu
5-day plot - Visibility
VIS
nmi
5-day plot - Tide (above MLLW)
TIDE
ft
2024-06-12 11:12 pm-------29.87-- 89.1----
2024-06-12 11:06 pm-------29.87-- 88.9----
2024-06-12 11:00 pm-------29.88+0.00 84.2 88.9----
2024-06-12 10:54 pm-------29.88- 84.2 88.9----
2024-06-12 10:48 pm-------29.88- 84.2 89.1----
2024-06-12 10:42 pm-------29.88- 84.0 89.1----
2024-06-12 10:36 pm-------29.88- 84.0 89.1----
2024-06-12 10:30 pm-------29.88- 84.2 89.1----
2024-06-12 10:24 pm-------29.88- 84.0 89.1----
2024-06-12 10:18 pm-------29.88- 84.2-----
2024-06-12 10:12 pm-------29.88- 83.8-----
2024-06-12 10:06 pm-------29.88- 84.2-----
2024-06-12 10:00 pm-------29.89+0.03 84.0-----
2024-06-12 09:54 pm-------29.88- 84.2-----
2024-06-12 09:48 pm-------29.89-- 88.9----
2024-06-12 09:42 pm-------29.88-- 88.9----
2024-06-12 09:36 pm-------29.88-- 88.9----
2024-06-12 09:30 pm-------29.89- 84.0 89.1----
2024-06-12 09:24 pm-------29.89- 84.0 89.1----
2024-06-12 09:18 pm-------29.88-- 89.1----
2024-06-12 09:12 pm-------29.88-- 89.1----
2024-06-12 09:06 pm-------29.88-- 89.1----
2024-06-12 09:00 pm---------- 89.2----
2024-06-12 08:54 pm---------- 89.2----
2024-06-12 08:48 pm-------29.88-- 89.2----
2024-06-12 08:42 pm-------29.88-- 89.2----
2024-06-12 08:36 pm-------29.88-- 89.4----
2024-06-12 08:30 pm-------29.88-- 89.4----
2024-06-12 08:24 pm-------29.88-- 89.4----
2024-06-12 08:18 pm-------29.88- 83.8 89.4----
2024-06-12 08:12 pm-------29.88- 84.0 89.4----
2024-06-12 08:06 pm-------29.88- 84.0 89.4----
2024-06-12 08:00 pm-------29.88+0.00- 89.4----
2024-06-12 07:54 pm-------29.87-- 89.6----
2024-06-12 07:48 pm-------29.87-- 89.6----
2024-06-12 07:42 pm-------29.87-- 89.6----
2024-06-12 07:36 pm-------29.87-- 89.6----
2024-06-12 07:30 pm-------29.87- 84.6 89.6----
2024-06-12 07:24 pm-------29.87- 84.2 89.8----
2024-06-12 07:00 pm-------29.86-0.02- 90.0----
2024-06-12 06:54 pm-------29.86-- 90.0----
2024-06-12 06:48 pm-------29.85-- 90.0----
2024-06-12 06:42 pm-------29.86-- 90.0----
2024-06-12 06:36 pm-------29.85-- 90.0----
2024-06-12 06:30 pm-------29.86- 84.6 90.0----
2024-06-12 06:24 pm-------29.85- 84.6 90.0----
2024-06-12 06:18 pm-------29.85-- 90.0----
2024-06-12 06:12 pm-------29.85-- 90.0----
2024-06-12 06:06 pm-------29.86-- 90.0----
2024-06-12 06:00 pm-------29.86-0.03- 90.0----
2024-06-12 05:54 pm-------29.86-- 90.0----
2024-06-12 05:48 pm-------29.86-- 90.0----
2024-06-12 05:42 pm-------29.87-- 90.0----
2024-06-12 05:36 pm-------29.87-- 90.0----
2024-06-12 05:30 pm-------29.87- 84.7 90.0----
2024-06-12 05:24 pm-------29.87- 84.6 89.8----
2024-06-12 05:18 pm-------29.87- 84.6 89.8----
2024-06-12 05:12 pm-------29.87- 84.4 89.8----
2024-06-12 05:06 pm-------29.87- 84.4 89.8----
2024-06-12 05:00 pm-------29.87-0.02- 89.6----
2024-06-12 04:54 pm-------29.87-- 89.6----
2024-06-12 04:48 pm-------29.88-- 89.6----
2024-06-12 04:42 pm-------29.88-- 89.6----
2024-06-12 04:36 pm-------29.88-- 89.4----
2024-06-12 04:30 pm-------29.88- 84.6 89.4----
2024-06-12 04:24 pm-------29.87- 84.7 89.2----
2024-06-12 04:18 pm-------29.88- 84.7 89.2----
2024-06-12 04:12 pm-------29.88- 84.6 89.1----
2024-06-12 04:06 pm-------29.88- 85.1 89.1----
2024-06-12 04:00 pm-------29.88-0.02- 89.1----
2024-06-12 03:54 pm-------29.88-- 89.1----
2024-06-12 03:48 pm-------29.88-- 89.2----
2024-06-12 03:42 pm-------29.88-- 89.1----
2024-06-12 03:36 pm-------29.88-- 89.1----
2024-06-12 03:30 pm-------29.88- 84.2 88.9----
2024-06-12 03:24 pm-------29.88- 84.2 88.9----
2024-06-12 03:18 pm-------29.88- 84.2 88.7----
2024-06-12 03:12 pm-------29.88- 84.2 88.7----
2024-06-12 03:06 pm-------29.88- 84.4 88.5----
2024-06-12 03:00 pm-------29.89-0.01 84.6 88.3----
2024-06-12 02:54 pm-------29.88- 84.6 88.3----
2024-06-12 02:48 pm-------29.89-- 88.2----
2024-06-12 02:42 pm-------29.89-- 88.2----
2024-06-12 02:36 pm-------29.89-- 88.0----
2024-06-12 02:30 pm-------29.89- 85.1 88.0----
2024-06-12 02:24 pm-------29.89- 85.1 87.8----
2024-06-12 02:18 pm-------29.89-- 87.6----
2024-06-12 02:12 pm-------29.89-- 87.6----
2024-06-12 02:06 pm-------29.89-- 87.4----
2024-06-12 02:00 pm-------29.89+0.00- 87.4----
2024-06-12 01:54 pm-------29.89-- 87.4----
2024-06-12 01:48 pm-------29.89-------
2024-06-12 01:42 pm-------29.89-------
2024-06-12 01:36 pm-------29.90-------
2024-06-12 01:30 pm-------29.89- 84.7 87.3----
2024-06-12 01:24 pm-------29.89- 84.9 87.3----
2024-06-12 01:18 pm-------29.90-- 87.3----
2024-06-12 01:12 pm-------29.90-- 87.3----
2024-06-12 01:06 pm-------29.90-- 87.3----
2024-06-12 01:00 pm-------29.90+0.01 84.9 87.1----
2024-06-12 12:54 pm-------29.90- 85.3 87.1----
2024-06-12 12:48 pm-------29.90-- 87.1----
2024-06-12 12:42 pm-------29.90-- 87.1----
2024-06-12 12:36 pm-------29.90-- 86.9----
2024-06-12 12:30 pm-------29.90- 84.7-----
2024-06-12 12:24 pm-------29.90- 84.6-----
2024-06-12 12:18 pm-------29.90-------
2024-06-12 12:12 pm-------29.90-------
2024-06-12 12:06 pm-------29.90-------
2024-06-12 12:00 pm-------29.90+0.01 84.7 86.5----
2024-06-12 11:54 am-------29.90- 85.5 86.5----
2024-06-12 11:48 am-------29.90- 84.6 86.5----
2024-06-12 11:42 am-------29.89- 84.0 86.5----
2024-06-12 11:36 am-------29.89- 84.4 86.5----
2024-06-12 11:30 am-------29.90- 84.0 86.5----
2024-06-12 11:24 am-------29.90- 84.4 86.5----
2024-06-12 11:18 am-------29.90- 84.4 86.5----
2024-06-12 11:12 am-------29.90- 83.7 86.4----
2024-06-12 11:06 am-------29.89- 83.3 86.4----
2024-06-12 11:00 am-------29.89+0.00- 86.4----
2024-06-12 10:54 am-------29.89-- 86.4----
2024-06-12 10:48 am-------29.89-- 86.2----
2024-06-12 10:42 am-------29.89-- 86.2----
2024-06-12 10:36 am-------29.89-- 86.2----
2024-06-12 10:30 am-------29.90- 83.1 86.2----
2024-06-12 10:24 am-------29.89- 82.9 86.2----
2024-06-12 10:18 am-------29.90-- 86.2----
2024-06-12 10:12 am-------29.89-- 86.2----
2024-06-12 10:06 am-------29.89-- 86.2----
2024-06-12 10:00 am-------29.89+0.02 82.9 86.2----
2024-06-12 09:54 am-------29.89- 82.8 86.0----
2024-06-12 09:48 am-------29.89-- 86.0----
2024-06-12 09:42 am-------29.90-- 86.0----
2024-06-12 09:36 am-------29.90-- 86.0----
2024-06-12 09:30 am-------29.90- 82.4 86.0----
2024-06-12 09:24 am-------29.89- 82.6 86.0----
2024-06-12 09:18 am-------29.89- 82.4 86.0----
2024-06-12 09:12 am-------29.89- 82.2 85.8----
2024-06-12 09:06 am-------29.89- 82.0 85.8----
2024-06-12 09:00 am-------29.89+0.03 82.2 85.8----
2024-06-12 08:54 am-------29.89- 81.7 85.8----
2024-06-12 08:48 am-------29.89- 82.0 85.8----
2024-06-12 08:42 am-------29.89- 81.9 85.8----
2024-06-12 08:36 am-------29.89- 81.9 85.8----
2024-06-12 08:30 am-------29.88- 81.7 85.8----
2024-06-12 08:24 am-------29.88- 81.7 85.8----
2024-06-12 08:18 am-------29.88- 81.5 85.8----
2024-06-12 08:12 am-------29.89- 81.7 85.6----
2024-06-12 08:06 am-------29.88- 81.7 85.6----
2024-06-12 08:00 am-------29.88+0.04 82.2 85.6----
2024-06-12 07:54 am-------29.88- 82.8 85.6----
2024-06-12 07:48 am-------29.87-- 85.6----
2024-06-12 07:42 am-------29.87-- 85.6----
2024-06-12 07:36 am-------29.87-- 85.6----
2024-06-12 07:30 am-------29.87- 83.1 85.6----
2024-06-12 07:24 am-------29.87- 82.9 85.5----
2024-06-12 07:18 am-------29.87- 82.8 85.5----
2024-06-12 07:12 am-------29.87- 82.9 85.5----
2024-06-12 07:06 am-------29.87- 82.8 85.5----
2024-06-12 07:00 am-------29.87+0.05 82.9 85.5----
2024-06-12 06:54 am-------29.87- 82.2 85.6----
2024-06-12 06:48 am-------29.87-- 85.6----
2024-06-12 06:42 am-------29.87-- 85.6----
2024-06-12 06:36 am-------29.87-- 85.6----
2024-06-12 06:30 am-------29.87- 82.4 85.8----
2024-06-12 06:24 am-------29.86- 82.6 86.0----
2024-06-12 06:18 am-------29.86-- 86.0----
2024-06-12 06:12 am-------29.86-- 86.2----
2024-06-12 06:06 am-------29.86-- 86.4----
2024-06-12 06:00 am-------29.86+0.04 82.6 86.4----
2024-06-12 05:54 am-------29.86- 82.4 86.4----
2024-06-12 05:48 am-------29.86-- 86.4----
2024-06-12 05:42 am-------29.86-- 86.4----
2024-06-12 05:36 am-------29.85-- 86.4----
2024-06-12 05:30 am-------29.85- 82.0 86.5----
2024-06-12 05:24 am-------29.85- 82.2 86.5----
2024-06-12 05:18 am-------29.85- 82.2 86.5----
2024-06-12 05:12 am-------29.84- 82.2 86.5----
2024-06-12 05:06 am-------29.84- 82.0 86.7----
2024-06-12 05:00 am-------29.84+0.01- 86.7----
2024-06-12 04:54 am-------29.84-- 86.7----
2024-06-12 04:48 am-------29.84-- 86.7----
2024-06-12 04:42 am-------29.84-- 86.7----
2024-06-12 04:36 am-------29.83-- 86.7----
2024-06-12 04:30 am-------29.83- 82.2 86.9----
2024-06-12 04:24 am-------29.83- 82.0 86.9----
2024-06-12 04:18 am-------29.82- 81.9 86.9----
2024-06-12 04:12 am-------29.82- 81.9 87.1----
2024-06-12 04:06 am-------29.82- 81.9 87.3----
2024-06-12 04:00 am-------29.82-0.03- 87.3----
2024-06-12 03:54 am-------29.82-- 87.4----
2024-06-12 03:48 am-------29.82- 81.7 87.4----
2024-06-12 03:42 am-------29.82- 81.5 87.6----
2024-06-12 03:36 am-------29.82- 81.5 87.6----
2024-06-12 03:30 am-------29.82- 80.8 87.6----
2024-06-12 03:24 am-------29.82- 80.4 87.6----
2024-06-12 03:18 am-------29.82- 79.7 87.6----
2024-06-12 03:12 am-------29.82- 78.6 87.6----
2024-06-12 03:06 am-------29.82- 78.3 87.6----
2024-06-12 03:00 am-------29.82-0.02 77.9 87.8----
2024-06-12 02:54 am-------29.82- 77.7 87.8----
2024-06-12 02:48 am-------29.82- 77.7 87.8----
2024-06-12 02:42 am-------29.82- 77.4 87.8----
2024-06-12 02:36 am-------29.82- 77.2 87.8----
2024-06-12 02:30 am-------29.83-- 87.8----
2024-06-12 02:24 am-------29.83-- 87.8----
2024-06-12 02:18 am-------29.83- 77.0 87.8----
2024-06-12 02:12 am-------29.83- 76.8 87.8----
2024-06-12 02:06 am-------29.83- 76.8 87.6----
2024-06-12 02:00 am-------29.83-0.01 77.0 87.6----
2024-06-12 01:54 am-------29.83- 77.2 87.6----
2024-06-12 01:48 am-------29.83-- 87.8----
2024-06-12 01:42 am-------29.83-- 87.8----
2024-06-12 01:36 am-------29.83-- 87.8----
2024-06-12 01:30 am-------29.83-- 87.8----
2024-06-12 01:24 am-------29.83-- 87.8----
2024-06-12 01:18 am-------29.83- 77.5 87.8----
2024-06-12 01:12 am-------29.84- 77.0 87.8----
2024-06-12 01:06 am-------29.84- 76.6 87.8----
2024-06-12 01:00 am-------29.84+0.01 76.5 87.8----
2024-06-12 12:54 am-------29.84- 76.8 87.8----
2024-06-12 12:48 am-------29.85- 77.4 87.8----
2024-06-12 12:42 am-------29.85- 75.4 87.8----
2024-06-12 12:36 am-------29.84- 75.0 87.8----
2024-06-12 12:30 am-------29.84- 75.2 87.8----
2024-06-12 12:24 am-------29.84- 75.7 87.8----
2024-06-12 12:18 am-------29.84- 75.9 87.8----
2024-06-12 12:12 am-------29.84- 76.1 87.8----
2024-06-12 12:06 am-------29.84- 75.9 87.8----
2024-06-12 12:00 am-------29.84+0.01- 87.6----
2024-06-11 11:54 pm-------29.84-- 87.6----